Starlink 33816

operational
NORAD ID: 63677 Int'l Des: 2025-085 Owner: SPXS Country: US Constellation: starlink
LEOCIRCULAR

Über Starlink 33816

Beschreibung wird geladen...

Live-Position

3D-Globus wird geladen...

Nächste Überflüge

Höhenverlauf

Altitude vs Time

uPlot chart will show altitude changes over time

Zweizeiliger Elementsatz

1 63677U 25085P 25303.67142792 .00055050 00000-0 19941-2 0 9991
2 63677 43.0014 45.3359 0000651 328.4878 31.5934 15.27597824 29088
Epoch: 30. Okt. 2025 • Age: 22 hours

Aktueller Status

Höhe 495.6 km
Geschwindigkeit 7.62 km/s
Subsatellitenpunkt -42.30°S, 51.52°E
Startdatum 28. Apr. 2025
Alter 0.5 years
Typ internet

Technische Details

Klassifizierung Payload
Masse 575.00 kg
Trockenmasse 530.00 kg
Gesamtmasse 575.00 kg
Länge 0.30 m
Durchmesser 4.10 m
Spannweite 29.00 m
Form Box + pan
Hersteller SPXS
Bus-Typ Starlink V2MO
Phasenstatus In Orbit
Besitzer/Staat SPXS/US

Große Konstellationen

Loading constellations...